AQUA

Last updated on Tue Dec 03 2024 00:02:12 GMT+0000 (Coordinated Universal Time)

1 27424U 02022A 24337.57223999 .00003013 00000+0 63172-3 0 9998 2 27424 98.3531 287.8663 0000849 40.2669 19.8548 14.60442700201240
UTC large
Height (km)
Speed (km/s)
/
Latitude / Longitude
Inclination (degrees)
Orbital Period (minutes)
Azimuth
Elevation
Range (km)
Doppler Factor

Next 0 passes for location: London (51.5072 / 0.1276)

Sorry there are no passes over London.